Simultaneous Nadir Overpasses (SNOs) Predictions

Prediction of SNOs between METOP-A and TERRA Satellite Orbit:

Table of predicted SNOs for the next 14.0 days since TLE Epoch: 12/30/2011
Index Date Time (METOP-A) METOP-A Lat,Lon TERRA Lat,Lon Distance(km) Time Diff (sec)
1 01/01/2012 03:53:39 -81.28, -11.75 -81.28, -11.71 0.58 11
2 01/01/2012 04:44:19 81.28, 156.05 81.28, 156.06 0.19 63
3 01/03/2012 22:37:25 81.28,-112.72 81.28,-112.84 2.21 73
4 01/03/2012 23:28:05 -81.28, 54.84 -81.28, 54.72 2.03 0
5 01/04/2012 00:18:30 81.32,-131.48 81.54,-132.08 26.47 73
6 01/06/2012 18:11:51 81.27, -46.62 81.27, -46.57 0.81 61
7 01/06/2012 19:02:30 -81.28, 121.35 -81.29, 121.39 1.08 12
8 01/09/2012 13:46:17 81.27, 19.78 81.28, 19.93 2.48 49
9 01/09/2012 14:36:57
